Location: Palomar Mountain Lodge
(33.3110°N, 116.8495°W)
Time: 00:36:45
(UTC-07:00)

Atlas 2A Centaur Rocket - Pass Details

Date: 14 June 2018
Orbit: 265 x 19766 km, 27.0° (Epoch: 19 June)

Event Time Altitude Azimuth Distance (km) Brightness Sun altitude
Rises 19:41:18 0° 254° (WSW) 2,882 6.3 2.3°
Reaches altitude 10° 19:42:41 10° 250° (WSW) 2,337 5.7 2.0°
Maximum altitude 19:47:43 60° 169° (S) 1,772 4.3 1.1°
Drops below altitude 10° 20:16:52 10° 97° (E) 11,497 7.9 -4.2°
Sets 20:43:47 0° 98° (E) 17,654 8.9 -8.9°
